Retour au catalogue

PRSC-HS1

ActifScienceSSO
NORAD 66054·PAYLOAD·🇵🇰 Pakistan
Ce nom de satellite n'a pas encore été confirmé par des sources officielles.

Lancé Oct 19, 2025 depuis Jiuquan Satellite Launch Center

Loading…

Prochains Passages (prochaines 24 heures)

TLE

FraisSource: Space-Track

Époque: Sep 13, 2026, 17:21 UTC

1 66054U 25234B   26256.72294685  .00003630  00000-0  16282-3 0  9995
2 66054  97.4683 325.3197 0011972 138.6754 221.5390 15.21787530 50101

Suivez PRSC-HS1 en temps réel avec AllMySat

Download on the App Store